Weather in Shugurovo

Russia / Penza Oblast     53°24′39″N   46°28′27″E
temp.,
°C
wind,
m/s
gust,
m/s
humid.,
%
clouds,
%
prec.,
mm/h
press.,
hPa
HPBL,
m
27 september, mon
mon2700:00+9ne5994100 0.7 1004411
03:00+9nne61291100 2.8 1005614
06:00+8nne61290100 0.1 1007467
09:00+9nne71188100 0.3 1008683
12:00+8nne71090100 0.1 1010744
15:00+8nne6889100 0.3 1012880
18:00+6nne6992100 0.1 1014578
21:00+5nne51095100 0.4 1016570
28 september, tue
tue2800:00+6ne61187100 0.1 1018609
03:00+4ne6991100 0.1 1020651
06:00+3ne6982100 0.0 10221027
09:00+5ne797096 0.1 10241079
12:00+7ne795643 0.0 10251326
15:00+8ne78485 0.0 10251448
18:00+5ne5106381 0.0 1028406
21:00+3nne39745 0.0 1029255
29 september, wed
wed2900:00+2nne3880100 0.0 1030237
03:00+1nne378197 0.0 1030175
06:00+1nne3882100 0.0 1031213
09:00+5nne57605 0.0 1031693
12:00+8ne564748 0.0 10311572
15:00+9nne564324 0.0 10311656
18:00+5nne36595 0.0 103294
21:00+3ne22675 0.0 103329
30 september, thu
thu3000:00+2nne22735 0.0 103315
03:00+1n22775 0.0 103418
06:00+1n22815 0.0 103419
09:00+6n23615 0.0 1035346
12:00+9nne334975 0.0 10341433
15:00+9n3350100 0.0 10341265
18:00+8n235197 0.0 103443
21:00+6nw226331 0.0 103420
1 october, fri
fri100:00+5wnw246995 0.0 103471
03:00+6w3868100 0.0 1034257
06:00+5wnw387669 0.0 1034205
09:00+8wnw3774100 0.0 1033322
12:00+11nw466834 0.0 1033698
15:00+12nnw4664100 0.0 10321057
18:00+10nw3781100 0.1 1032227
21:00+10wnw3587100 0.1 1033132